Location: Orlestone
(51.0667°N, 0.8500°E)
Time: 13:49:48
(UTC+00:00)

Daily predictions for brighter satellites

Satellite Brightness Start Highest point End
(mag) Time Altitude Azimuth Time Altitude Azimuth Time Altitude Azimuth
BREEZE-M DEB (TANK) 4.4 19:57:59 10° W 20:02:47 73° SSW 20:22:05 10° ESE
Meteor 1-20 Rocket 4.3 20:03:33 10° NNW 20:09:14 86° ENE 20:14:45 10° SSE
Cosmos 1933 3.3 20:10:40 10° S 20:14:40 65° E 20:18:40 10° NNE
Cosmos 773 Rocket 4.2 20:11:32 10° NNW 20:16:51 67° ENE 20:22:06 10° SE
MetOp-B 4.3 20:16:17 10° SSE 20:21:33 63° ENE 20:26:52 10° N
ERS-2 3.9 20:19:21 10° N 20:22:44 37° WNW 20:26:05 10° SW
Cosmos 1602 3.7 20:20:49 10° N 20:24:41 79° E 20:28:34 10° SSE
Cosmos 1606 4.3 20:21:57 10° SW 20:25:31 39° WNW 20:29:08 10° N
Cosmos 2278 Rocket 3.2 20:20:58 10° SSE 20:25:34 26° ESE 20:30:11 10° NE
BREEZE-M DEB (TANK) 1.1 20:23:06 10° W 20:25:36 61° S 20:27:37 10° E
USA 305 3.0 20:22:30 10° WNW 20:26:47 84° NNE 20:31:04 10° ESE
Spot 2 Rocket 4.1 20:22:29 10° SE 20:27:15 44° ENE 20:32:01 10° N
Cosmos 1782 3.0 20:24:29 10° S 20:28:21 51° E 20:32:14 10° NNE
Landsat 7 3.8 20:24:04 10° SSE 20:28:48 77° ENE 20:33:36 10° NNW
Cosmos 1844 Rocket 3.1 20:24:02 10° SW 20:29:35 69° WNW 20:35:12 10° NNE
IGS 5A 3.5 20:25:36 10° SSE 20:29:44 87° ENE 20:33:55 10° NNW
Cosmos 1242 Rocket 2.4 20:27:19 10° S 20:30:53 86° ESE 20:34:26 10° NNE
Gbstr 26 Del rocket 4.5 20:23:17 10° W 20:31:17 85° N 20:38:10 10° E
ERS-1 Rocket 3.9 20:30:24 10° SE 20:34:56 35° ENE 20:39:29 10° N
CZ-4C R/B 3.0 20:28:43 10° NW 20:35:45 90° NE 20:43:47 11° SE
Cosmos 1633 Rocket 3.1 20:34:03 10° N 20:38:30 88° WSW 20:42:54 10° S
BREEZE M DEB (TANK) 4.3 20:34:49 10° WSW 20:39:03 77° SSE 20:54:30 10° E
Akebono 3.8 20:39:53 10° NNW 20:42:21 90° SSE 20:43:57 15° SSE
ATLAS 5 CENTAUR R/B 3.2 20:39:50 10° NW 20:45:05 42° WSW 20:51:10 10° SSE
deb Kosmos-1763 4.4 20:41:43 10° NNW 20:45:10 48° ENE 20:47:57 14° SE
USA 306 2.9 20:41:50 10° WNW 20:46:07 83° SSW 20:49:58 13° ESE
SWARM A 4.5 20:46:46 10° N 20:50:01 51° E 20:52:43 14° SSE
Cosmos 1470 Rocket 3.6 20:46:16 10° N 20:50:47 74° E 20:55:01 11° SSE
Cosmos 1328 Rocket 3.5 20:46:25 10° S 20:50:49 72° E 20:55:14 10° NNE
Cosmos 1812 3.2 20:47:18 11° SSE 20:50:50 41° E 20:54:29 10° NNE
Cosmos 1503 Rocket 4.3 20:45:58 10° SSW 20:51:08 74° WNW 20:56:24 10° NNE
Cosmos 1777 Rocket 4.2 20:47:23 10° S 20:52:25 52° ESE 20:57:28 10° NNE
ARIANE 5 R/B 2.7 20:52:22 13° SSE 20:56:08 66° ENE 21:00:27 10° N
Cosmos 1666 3.0 20:54:10 10° N 20:57:49 49° ENE 21:00:28 17° SSE
CRYOSAT 2 4.4 20:54:35 10° S 20:59:30 84° W 21:04:25 10° N
CARTOSAT-1 3.6 20:56:42 14° SSE 21:00:19 67° ENE 21:04:38 10° N
Cosmos 1833 Rocket 2.8 20:56:35 10° NNW 21:02:17 83° WSW 21:07:04 15° SSE
Meteor 1-5 Rocket 4.1 20:58:18 10° N 21:03:44 80° ENE 21:08:22 14° SSE
Cosmos 1933 Rocket 3.6 21:00:41 10° N 21:05:02 69° ENE 21:08:26 16° SSE
BREEZE-M R/B 1.8 21:03:14 10° WSW 21:05:39 52° SSE 21:07:49 13° E
Cosmos 1437 2.6 21:05:24 10° SSW 21:08:14 73° WNW 21:11:05 10° N
Cosmos 1536 4.0 21:04:40 10° N 21:08:15 29° ENE 21:10:33 17° ESE
Cosmos 2184 Rocket 4.1 21:06:20 10° N 21:12:33 67° ENE 21:17:33 16° SSE
USA 307 3.0 21:08:28 10° WNW 21:12:43 66° SSW 21:15:38 19° SE
CZ-2C R/B 3.8 21:09:50 10° NNE 21:14:20 79° WNW 21:18:52 10° SSW
H-2A R/B 4.5 21:12:41 10° NE 21:16:23 29° E 21:18:18 20° SE
Cosmos 2074 Rocket 4.0 21:10:45 10° N 21:17:05 75° E 21:22:14 16° SSE
NOSS 3-4 (A) 3.9 21:11:09 10° NW 21:18:01 89° NE 21:24:06 18° SE
NOSS 3-4 (C) 3.9 21:11:15 10° NW 21:18:08 89° NE 21:24:13 17° SE
JB-3 4.3 21:15:08 10° NNE 21:19:02 63° ESE 21:21:59 16° S
USA 245 3.4 21:20:53 18° SSW 21:22:07 31° W 21:24:13 10° NNW
SJ 16-02 1.5 21:19:29 13° S 21:23:19 54° ESE 21:27:40 10° NNE
Nadezhda 1 Rocket 4.4 21:19:51 17° SSE 21:24:27 46° E 21:30:20 10° NNE
USA 308 3.1 21:22:05 10° WNW 21:26:18 56° SSW 21:28:43 24° SE
Cosmos 1500 4.4 21:24:11 10° NNW 21:27:42 38° W 21:30:59 11° SSW
SPOT 1/Viking Rocket 4.3 21:23:34 10° S 21:28:35 49° W 21:33:38 10° NNW
NOSS 3-3 (A) 4.0 21:23:04 10° SW 21:28:57 85° NW 21:35:48 10° NE
NOSS 3-3 (C) 4.0 21:23:10 10° SW 21:29:04 85° NW 21:35:54 10° NE
ATLAS 2AS CENTAUR R/B 3.0 21:24:05 10° NW 21:31:36 73° NE 21:37:04 18° SE
Cosmos 1544 3.9 21:32:15 10° N 21:35:39 37° ENE 21:37:03 26° ESE
CREW DRAGON DEMO-1 DEB 3.6 21:33:28 10° W 21:35:49 28° SSW 21:35:56 28° SSW
Iridium 4 Rocket 3.8 21:30:58 14° S 21:36:02 87° E 21:42:00 10° N
Terra 1.8 21:33:01 22° SSE 21:36:06 78° ENE 21:40:52 10° NNW
USA 215 3.9 21:31:23 10° E 21:37:43 55° N 21:44:03 10° WNW
Cosmos 1610 Rocket 4.5 21:33:48 10° N 21:39:57 72° ENE 21:44:05 22° SSE
ERBS 3.5 21:37:28 10° NW 21:40:36 38° NNE 21:43:15 13° E
Cosmos 2082 Rocket 2.2 21:36:36 10° NNW 21:42:14 78° WSW 21:45:50 23° SSE
SPOT 5 3.2 21:38:33 19° S 21:42:16 72° WSW 21:47:35 10° NNW
Cosmos 158 Rocket 3.9 21:39:00 10° NNW 21:43:53 72° WSW 21:46:51 24° S
Cosmos 2112 Rocket 4.3 21:39:40 10° NNW 21:44:59 61° ENE 21:48:11 24° SE
Resurs 01 Rocket 4.0 21:42:15 10° SW 21:45:17 18° W 21:48:19 10° NW
Cosmos 2084 4.0 21:41:56 10° WSW 21:46:03 60° NW 21:50:19 10° NE
Cosmos 2228 Rocket 3.0 21:45:34 23° S 21:48:14 70° E 21:52:42 10° NNE
Cosmos 44 3.7 21:43:08 10° NW 21:48:36 68° NE 21:51:59 23° SE
COSMOS 2406 4.1 21:43:21 10° NW 21:48:36 40° WSW 21:52:38 16° S
Cosmos 2084 Rocket 3.9 21:52:32 10° NW 21:56:43 56° NE 21:59:14 23° ESE
Cosmos 1271 Rocket 3.0 21:54:20 18° SSW 21:57:12 70° WNW 22:01:14 10° N
Cosmos 2341 Rocket 4.3 21:54:06 10° N 22:00:26 58° ENE 22:04:08 25° SE
BREEZE-M DEB (TANK) 3.3 21:52:28 10° W 22:00:46 77° N 22:03:26 10° ENE
Meteor 1-27 Rocket 3.8 21:58:45 21° S 22:02:50 78° E 22:08:47 10° NNE
USA 305 3.9 22:02:41 10° WNW 22:06:28 31° SW 22:07:27 28° SSW
Cosmos 2278 Rocket 2.6 22:03:38 10° SW 22:09:15 64° NW 22:14:54 10° NNE
SL-24 R/B - RUBIN 2 3.9 22:05:00 10° NW 22:10:39 88° SW 22:13:07 31° SE
Cosmos 1937 Rocket 4.1 22:09:32 30° SE 22:11:09 37° ESE 22:15:53 10° NE
Cosmos 1680 Rocket 3.6 22:06:51 10° NNW 22:12:12 77° WSW 22:14:52 30° SSE
ERS-1 Rocket 4.0 22:10:19 17° SSW 22:13:41 38° W 22:18:24 10° NNW
Cosmos 1869 Rocket 4.0 22:09:42 10° NNW 22:13:57 56° W 22:16:04 27° SSW
Cosmos 2218 Rocket 4.5 22:08:47 10° N 22:14:53 50° ENE 22:18:16 26° SE
Cosmos 1943 Rocket 2.8 22:13:55 29° SE 22:15:40 36° ESE 22:20:45 10° NE
Cosmos 2369 Rocket 3.5 22:17:10 21° ESE 22:18:06 22° E 22:22:16 10° NE
Gbstr 26 Del rocket 4.1 22:11:16 10° WNW 22:18:52 81° SSW 22:23:48 18° ESE
Cosmos 1238 Rocket 3.9 22:16:14 10° N 22:22:32 67° ENE 22:25:13 32° SSE
CZ-4C R/B 4.2 22:17:47 10° WNW 22:23:57 29° WSW 22:28:58 16° SSW
USA 306 4.2 22:22:11 10° W 22:25:38 24° SW 22:26:02 24° SW
Meteor 2-9 Rocket 4.5 22:20:07 10° N 22:25:53 60° ENE 22:28:36 31° SE
Cosmos 1340 Rocket 3.1 22:25:39 10° NNW 22:29:42 61° W 22:31:03 38° SSW
Okean 1 3.6 22:29:36 43° SE 22:30:22 50° E 22:34:16 10° NNE
Cosmos 1818 3.5 22:26:05 10° NW 22:31:36 90° W 22:34:12 33° SE
Cosmos 1707 Rocket 3.5 22:32:59 38° S 22:34:38 89° ESE 22:39:05 10° N
DNEPR-1 R/B 4.3 22:34:46 33° S 22:36:46 47° SE 22:41:31 10° NE
SL-8 Rocket 4.0 22:32:00 10° N 22:38:23 82° E 22:41:32 32° SSE
ALOS 2 3.3 22:41:06 32° ESE 22:42:37 44° ENE 22:46:48 10° N
Cosmos 1536 4.3 22:41:06 10° NNW 22:44:38 29° W 22:46:16 22° SW
Cosmos 1743 3.4 22:44:50 10° NNW 22:48:32 45° W 22:49:32 36° SW
Meteor 2-4 Rocket 4.4 22:47:04 31° SE 22:49:02 41° E 22:54:15 10° NNE
Cosmos 1898 Rocket 3.5 22:47:29 26° SSW 22:50:31 83° WNW 22:55:54 10° NNE
SL-27 R/B 4.2 22:50:17 10° N 22:52:57 22° NE 22:53:51 19° E
Cosmos 1975 2.7 22:55:45 10° N 22:59:46 83° E 23:00:28 59° SSE
RESURS DK-1 3.1 22:57:57 10° NNW 23:02:00 46° NE 23:03:31 31° ESE
SJ 16-02 3.6 22:58:39 10° WSW 23:02:13 23° NW 23:05:48 10° N
Cosmos 1733 Rocket 3.5 22:59:30 10° NNW 23:03:43 50° W 23:04:54 38° SW
Cosmos 864 Rocket 4.4 22:59:35 10° NNW 23:05:47 82° W 23:08:29 36° S
Cosmos 1461 3.3 23:07:22 48° SSE 23:08:00 52° SE 23:12:30 10° NE
Cosmos 2297 3.8 23:04:38 24° SW 23:08:10 79° WNW 23:13:53 10° NNE
SeaSat 1 4.1 23:04:54 10° ENE 23:08:18 18° ESE 23:08:32 18° ESE
Cosmos 372 Rocket 4.0 23:07:02 43° SSE 23:08:30 63° ESE 23:13:32 10° NNE
Cosmos 1959 Rocket 4.5 23:02:16 10° NNW 23:08:31 77° W 23:11:16 35° S
Cosmos 2242 Rocket 4.1 23:09:01 40° SE 23:09:49 45° E 23:14:06 10° NNE
Cosmos 1900 4.4 23:09:19 27° SW 23:12:10 84° NW 23:17:14 10° NE
Terra 4.0 23:11:54 11° WSW 23:14:26 16° W 23:17:22 10° NW
ISS -1.0 23:18:16 10° E 23:18:16 10° E 23:18:17 10° E
ERBS 3.1 23:13:34 10° WNW 23:16:00 41° W 23:16:00 41° W
Cosmos 494 Rocket 4.4 23:12:42 10° NNW 23:17:50 55° ENE 23:20:07 31° ESE
Cosmos 1908 Rocket 3.5 23:14:09 10° N 23:18:39 90° NNW 23:19:43 53° S
Meteor 1-18 Rocket 4.2 23:16:27 36° SSW 23:18:52 84° WNW 23:24:29 10° NNE
USA 215 3.3 23:13:56 10° ESE 23:20:29 84° NNE 23:27:03 10° WNW
ATLAS 2AS CENTAUR R/B 3.6 23:15:38 10° NW 23:22:04 34° WSW 23:24:29 27° SSW
Cosmos 2082 Rocket 4.3 23:22:31 10° WNW 23:25:23 14° W 23:27:41 11° WSW
Cosmos 1867 4.1 23:25:56 38° SE 23:26:49 41° ESE 23:31:55 10° NE
Cosmos 44 Rocket 4.2 23:22:36 10° NW 23:27:43 50° NE 23:31:23 18° ESE
Cosmos 1125 Rocket 4.3 23:26:49 31° SE 23:27:50 34° ESE 23:32:30 10° NE
Cosmos 2181 Rocket 4.3 23:29:26 28° SW 23:32:40 60° WNW 23:38:44 10° N
SAR-Lupe-2 3.4 23:29:16 10° NNE 23:32:52 74° ESE 23:32:57 74° ESE
Cosmos 1378 3.9 23:34:53 39° E 23:34:57 39° E 23:38:27 10° NNE
ATLAS CENTAUR R/B 2.7 23:38:29 23° E 23:38:29 23° E 23:40:41 10° ENE
Cosmos 2344 4.3 23:28:50 10° NW 23:37:44 84° NE 23:50:09 10° SE
Cosmos 1821 Rocket 4.0 23:32:11 10° N 23:38:40 85° E 23:41:25 37° SSE
Cosmos 1934 Rocket 4.4 23:33:10 10° N 23:39:11 52° ENE 23:42:10 29° SE
USA 281 4.5 23:38:08 10° ESE 23:44:02 37° NE 23:49:58 10° NNW
Cosmos 1703 Rocket 3.5 23:48:52 55° SSW 23:49:48 80° W 23:54:14 10° N
Cosmos 1782 Rocket 3.5 23:46:00 10° NNW 23:50:30 78° W 23:51:22 56° SSW
Okean 3 3.7 23:50:46 51° SE 23:51:25 57° E 23:55:36 10° NNE
NOSS 2-1 (C) 4.3 23:48:48 10° NW 23:53:19 66° NE 23:58:29 15° SE
Lacrosse 5 3.8 23:54:51 16° ESE 23:54:51 16° ESE 23:57:14 10° E
